{"data":{"norad_id":64916,"epoch":"2026-05-25T04:00:03.998880Z","epoch_age_seconds":53957,"freshness":"FRESH","line1":"1 64916U 25157N   26145.16671295 -.00014056  00000+0 -40568-3 0  9994","line2":"2 64916  53.1595 343.2493 0001046  66.7222 310.8792 15.34396494  5935","mean_motion":15.34396494,"eccentricity":0.0001046,"inclination_deg":53.1595,"raan_deg":343.2493,"arg_perigee_deg":66.7222,"mean_anomaly_deg":310.8792,"bstar":-0.00040568,"rev_number":593,"period_min":93.847972517591,"perigee_km":461.99810781868,"apogee_km":463.42921377692,"semimajor_km":6840.8506607978,"source":"CELESTRAK","updated_at":"2026-05-25T13:38:20.622596Z"}}